Tracking 29747 objects as of 9-Oct-2024
HD Live streaming from Space Station
objects crossing your sky now

STARLINK-3726

Track STARLINK-3726 now!
10-day predictions
STARLINK-3726 is classified as:


NORAD ID: 52122
Int'l Code: 2022-029AL
Perigee: 545.7 km
Apogee: 548.1 km
Inclination: 53.2 °
Period: 95.4 minutes
Semi major axis: 6917 km
RCS: Unknown
Launch date: March 19, 2022
Source: United States (US)
Launch site: AIR FORCE EASTERN TEST RANGE (AFETR)
Your satellite tracking list
Your tracking list is empty




NASA's NSSDC Master Catalog

Two Line Element Set (TLE):
1 52122U 22029AL  24283.57941572 -.00002809  00000-0 -15851-3 0  9990
2 52122  53.2168 236.0312 0001754  78.9732 281.1458 15.08830263142876
Source of the keplerian elements: AFSPC